Weather History for KAPC - November, 2012

Change the Weather History Date:

Friday, November 9, 2012

  Actual Average Record
Temperature  
Mean Temperature 47 °F 53 °F  
Max Temperature 58 °F 66 °F 76 °F (2001)
Min Temperature 35 °F 40 °F 31 °F (2000)
Degree Days  
Heating Degree Days 18    
Month to date heating degree days 70  
Since 1 July heating degree days 330  
Cooling Degree Days 0    
Month to date cooling degree days 0  
Year to date cooling degree days 204  
Moisture  
Dew Point 38 °F    
Average Humidity 68    
Maximum Humidity 93    
Minimum Humidity 43    
Precipitation  
Precipitation T in - 1.67 in (1954)
Month to date precipitation 0.04  
Year to date precipitation 15.17  
Since 1 July precipitation 1.40  
Sea Level Pressure  
Sea Level Pressure 29.91 in    
Wind  
Wind Speed 5 mph (WNW)    
Max Wind Speed 21 mph    
Max Gust Speed 24 mph    
Visibility 8 miles    
Events      
T = Trace of Precipitation, MM = Missing Value Source: NWS Daily Summary

Daily Weather History Graph

Daily Weather History Graph

Search for Another Location

Airport or City:

Trip Planner

Search our weather history database for the weather conditions in past years. The results will help you decide how hot, cold, wet, or windy it might be!

Date:

Astronomy

Nov. 09, 2012 Rise Set
Actual Time 6:44 AM PST 5:01 PM PST
Civil Twilight 6:16 AM PST 5:28 PM PST
Nautical Twilight 5:44 AM PST 6:00 PM PST
Astronomical Twilight 5:13 AM PST 6:31 PM PST
Moon 1:53 AM PST (11/9) 2:13 PM PST (11/9)
Length of Visible Light 11h 12m
Length of Day
10h 16m
Waning Crescent, 22% of the Moon is Illuminated
Nov 9
Waning Crescent
Nov 13
New
Nov 20
First Quarter
Nov 28
Full
Dec 6
Last Quarter

Hourly Weather History & Observations

Time (PST) Temp. Windchill Dew Point Humidity Pressure Visibility Wind Dir Wind Speed Gust Speed Precip Events Conditions
12:54 AM 41.0 °F 36.4 °F 37.9 °F 89% 29.88 in 10.0 mi North 6.9 mph - N/A   Overcast
1:54 AM 43.0 °F - 39.9 °F 89% 29.89 in 10.0 mi Calm Calm - 0.00 in   Overcast
2:54 AM 43.0 °F 41.3 °F 39.0 °F 86% 29.89 in 10.0 mi North 3.5 mph - 0.00 in   Overcast
3:54 AM 41.0 °F 39.0 °F 39.0 °F 93% 29.88 in 10.0 mi NE 3.5 mph - N/A   Scattered Clouds
4:54 AM 39.9 °F - 37.9 °F 93% 29.89 in 10.0 mi Calm Calm - N/A   Clear
5:39 AM 35.6 °F - 33.8 °F 93% 29.92 in 1.5 mi Calm Calm - N/A   Clear
5:41 AM 35.6 °F - 33.8 °F 93% 29.92 in 0.8 mi Calm Calm - N/A   Mist
5:54 AM 37.0 °F - 35.1 °F 93% 29.89 in 0.8 mi Calm Calm - N/A   Mist
5:58 AM 37.4 °F - 37.4 °F 100% 29.92 in 1.2 mi Calm Calm - N/A   Partly Cloudy
6:01 AM 37.4 °F - 37.4 °F 100% 29.92 in 4.0 mi Calm Calm - N/A   Clear
6:22 AM 35.6 °F 31.7 °F 33.8 °F 93% 29.92 in 2.0 mi North 4.6 mph - N/A   Clear
6:32 AM 35.6 °F 32.8 °F 33.8 °F 93% 29.92 in 6.0 mi North 3.5 mph - N/A   Clear
6:54 AM 35.1 °F - 34.0 °F 96% 29.90 in 2.0 mi Calm Calm - N/A   Clear
7:01 AM 35.6 °F - 33.8 °F 93% 29.93 in 10.0 mi Calm Calm - N/A   Clear
7:54 AM 39.0 °F 36.8 °F 37.0 °F 93% 29.92 in 10.0 mi NNW 3.5 mph - N/A   Clear
8:54 AM 46.0 °F 44.8 °F 41.0 °F 83% 29.93 in 10.0 mi NNE 3.5 mph - N/A   Clear
9:54 AM 48.0 °F - 42.1 °F 80% 29.93 in 10.0 mi Calm Calm - N/A   Clear
10:54 AM 52.0 °F - 41.0 °F 66% 29.93 in 10.0 mi West 4.6 mph - N/A   Scattered Clouds
11:54 AM 53.1 °F - 39.9 °F 61% 29.92 in 10.0 mi SSE 4.6 mph - N/A   Scattered Clouds
12:54 PM 55.0 °F - 39.0 °F 55% 29.90 in 10.0 mi SSW 6.9 mph - N/A   Mostly Cloudy
1:54 PM 57.0 °F - 36.0 °F 45% 29.88 in 10.0 mi West 10.4 mph 17.3 mph N/A   Scattered Clouds
2:54 PM 57.9 °F - 37.9 °F 47% 29.88 in 10.0 mi West 12.7 mph - N/A   Scattered Clouds
3:54 PM 53.1 °F - 37.9 °F 57% 29.89 in 10.0 mi WSW 13.8 mph - N/A   Mostly Cloudy
4:54 PM 51.1 °F - 39.9 °F 66% 29.90 in 10.0 mi West 9.2 mph - N/A   Mostly Cloudy
5:54 PM 50.0 °F - 41.0 °F 71% 29.91 in 10.0 mi West 10.4 mph - N/A   Mostly Cloudy
6:54 PM 46.9 °F - 39.9 °F 77% 29.93 in 10.0 mi Calm Calm - N/A   Clear
7:54 PM 45.0 °F - 39.0 °F 80% 29.94 in 10.0 mi Calm Calm - N/A   Clear
8:54 PM 45.0 °F 43.5 °F 39.0 °F 80% 29.95 in 10.0 mi WSW 3.5 mph - N/A   Clear
9:54 PM 42.1 °F 37.1 °F 37.0 °F 82% 29.95 in 10.0 mi WSW 8.1 mph - N/A   Clear
10:54 PM 41.0 °F 39.0 °F 37.9 °F 89% 29.95 in 10.0 mi SW 3.5 mph - N/A   Clear
11:54 PM 41.0 °F 39.0 °F 37.9 °F 89% 29.96 in 10.0 mi WNW 3.5 mph - N/A   Clear